When you browse on this site, cookies collect data to enhance your experience and personalize the content and advertising you see.
Visit our Privacy Policy to learn more. By continuing to use the site, you agree to this use of cookies and data.
  • In United Kingdom
  • List of Countries
  • For 7 days
  • Water Temperature
  • Weather Map
  • Weather Widgets
  • user-avatar
    Login

    Hourly Weather Barra

    Today, 5 December, Thursday

    Time Temperature Precipitation Wind Pressure Humidity
    00:00 +25°C° 0 mm 2 mps 747 mmHg 95%
    01:00 +25°C° 0 mm 2 mps 746 mmHg 95%
    02:00 +25°C° 0 mm 2 mps 746 mmHg 95%
    03:00 +24°C° 0 mm 2 mps 746 mmHg 95%
    04:00 +25°C° 0 mm 2 mps 746 mmHg 96%
    05:00 +26°C° 0 mm 2 mps 747 mmHg 92%
    06:00 +26°C° 0 mm 2 mps 747 mmHg 88%
    07:00 +27°C° 0 mm 1 mps 748 mmHg 84%
    08:00 +29°C° 0 mm 1 mps 748 mmHg 73%
    09:00 +32°C° 0 mm 1 mps 748 mmHg 62%
    10:00 +36°C° 0 mm 2 mps 748 mmHg 51%
    11:00 +36°C° 0 mm 3 mps 748 mmHg 51%
    12:00 +36°C° 0 mm 3 mps 747 mmHg 50%
    13:00 +36°C° 0 mm 4 mps 746 mmHg 50%
    14:00 +35°C° 0 mm 4 mps 746 mmHg 54%
    15:00 +34°C° 0 mm 5 mps 746 mmHg 57%
    16:00 +34°C° 0 mm 4 mps 745 mmHg 61%
    17:00 +32°C° 0 mm 4 mps 746 mmHg 68%
    18:00 +29°C° 0 mm 4 mps 746 mmHg 76%
    19:00 +28°C° 0 mm 3 mps 746 mmHg 83%
    20:00 +27°C° 0 mm 3 mps 747 mmHg 86%
    21:00 +27°C° 0 mm 3 mps 747 mmHg 89%
    22:00 +26°C° 0 mm 3 mps 747 mmHg 91%
    23:00 +26°C° 0 mm 3 mps 747 mmHg 91%

    Tomorrow, 6 December, Friday

    Time Temperature Precipitation Wind Pressure Humidity
    00:00 +26°C° 0 mm 3 mps 747 mmHg 91%
    01:00 +26°C° 0 mm 3 mps 746 mmHg 91%
    02:00 +26°C° 0 mm 3 mps 746 mmHg 90%
    03:00 +26°C° 0 mm 2 mps 746 mmHg 89%
    04:00 +26°C° 0 mm 2 mps 746 mmHg 87%
    05:00 +27°C° 0 mm 2 mps 747 mmHg 84%
    06:00 +28°C° 0 mm 2 mps 747 mmHg 81%
    07:00 +28°C° 0 mm 2 mps 748 mmHg 78%
    08:00 +30°C° 0 mm 2 mps 748 mmHg 68%
    09:00 +33°C° 0 mm 3 mps 748 mmHg 59%
    10:00 +35°C° 0 mm 3 mps 748 mmHg 49%
    11:00 +35°C° 0 mm 3 mps 747 mmHg 48%
    12:00 +36°C° 0 mm 4 mps 747 mmHg 47%
    13:00 +36°C° 0 mm 5 mps 746 mmHg 47%
    14:00 +34°C° 0 mm 4 mps 746 mmHg 53%
    15:00 +33°C° 0 mm 4 mps 746 mmHg 59%
    16:00 +30°C° 0 mm 4 mps 745 mmHg 65%
    17:00 +29°C° 0 mm 4 mps 746 mmHg 70%
    18:00 +28°C° 0 mm 3 mps 747 mmHg 75%
    19:00 +27°C° 0 mm 3 mps 747 mmHg 80%
    20:00 +27°C° 0 mm 3 mps 747 mmHg 83%
    21:00 +26°C° 0 mm 3 mps 748 mmHg 87%
    22:00 +25°C° 0 mm 3 mps 748 mmHg 91%
    23:00 +25°C° 0 mm 3 mps 747 mmHg 92%

    Day after tomorrow, 7 December, Saturday

    Time Temperature Precipitation Wind Pressure Humidity
    00:00 +25°C° 0 mm 3 mps 747 mmHg 93%
    01:00 +24°C° 0 mm 3 mps 747 mmHg 94%
    02:00 +24°C° 0 mm 3 mps 747 mmHg 94%
    03:00 +24°C° 0 mm 2 mps 747 mmHg 94%
    04:00 +24°C° 0 mm 2 mps 747 mmHg 94%
    05:00 +25°C° 0 mm 2 mps 747 mmHg 90%
    06:00 +26°C° 0 mm 2 mps 748 mmHg 86%
    07:00 +27°C° 0 mm 2 mps 748 mmHg 82%
    08:00 +29°C° 0 mm 2 mps 748 mmHg 70%
    09:00 +32°C° 0 mm 2 mps 748 mmHg 58%
    10:00 +35°C° 0 mm 2 mps 748 mmHg 45%
    11:00 +35°C° 0 mm 3 mps 748 mmHg 45%
    12:00 +35°C° 0 mm 3 mps 747 mmHg 45%
    13:00 +35°C° 0 mm 4 mps 747 mmHg 45%
    14:00 +34°C° 0 mm 4 mps 746 mmHg 48%
    15:00 +34°C° 0 mm 4 mps 746 mmHg 50%
    16:00 +33°C° 0 mm 4 mps 746 mmHg 53%
    17:00 +30°C° 0 mm 3 mps 746 mmHg 59%
    18:00 +28°C° 0 mm 3 mps 747 mmHg 66%
    19:00 +27°C° 0 mm 2 mps 747 mmHg 73%
    20:00 +26°C° 0 mm 2 mps 748 mmHg 77%
    21:00 +25°C° 0 mm 2 mps 748 mmHg 82%
    22:00 +24°C° 0 mm 2 mps 748 mmHg 86%
    23:00 +24°C° 0 mm 2 mps 748 mmHg 87%

    8 December, Sunday

    Time Temperature Precipitation Wind Pressure Humidity
    00:00 +24°C° 0 mm 2 mps 748 mmHg 88%
    01:00 +23°C° 0 mm 2 mps 748 mmHg 89%
    02:00 +23°C° 0 mm 2 mps 748 mmHg 90%
    03:00 +23°C° 0 mm 1 mps 748 mmHg 90%
    04:00 +23°C° 0 mm 1 mps 748 mmHg 90%
    05:00 +24°C° 0 mm 1 mps 748 mmHg 85%
    06:00 +25°C° 0 mm 1 mps 748 mmHg 79%
    07:00 +26°C° 0 mm 1 mps 749 mmHg 74%
    08:00 +28°C° 0 mm 1 mps 749 mmHg 62%
    09:00 +31°C° 0 mm 1 mps 749 mmHg 51%
    10:00 +34°C° 0 mm 2 mps 749 mmHg 39%
    11:00 +34°C° 0 mm 2 mps 748 mmHg 38%
    12:00 +34°C° 0 mm 3 mps 748 mmHg 38%
    13:00 +35°C° 0 mm 4 mps 748 mmHg 37%
    14:00 +34°C° 0 mm 4 mps 747 mmHg 40%
    15:00 +33°C° 0 mm 4 mps 747 mmHg 42%
    16:00 +33°C° 0 mm 3 mps 747 mmHg 45%
    17:00 +30°C° 0 mm 3 mps 747 mmHg 54%
    18:00 +28°C° 0 mm 3 mps 748 mmHg 62%
    19:00 +26°C° 0 mm 3 mps 748 mmHg 70%
    20:00 +25°C° 0 mm 3 mps 749 mmHg 75%
    21:00 +24°C° 0 mm 3 mps 749 mmHg 79%
    22:00 +23°C° 0 mm 2 mps 750 mmHg 83%
    23:00 +23°C° 0 mm 2 mps 749 mmHg 84%

    9 December, Monday

    Time Temperature Precipitation Wind Pressure Humidity
    00:00 +23°C° 0 mm 2 mps 749 mmHg 85%
    01:00 +23°C° 0 mm 2 mps 748 mmHg 85%
    02:00 +21°C° 0 mm 2 mps 748 mmHg 86%
    03:00 +21°C° 0 mm 2 mps 748 mmHg 87%
    04:00 +21°C° 0 mm 2 mps 748 mmHg 87%
    05:00 +23°C° 0 mm 2 mps 748 mmHg 83%
    06:00 +24°C° 0 mm 3 mps 748 mmHg 79%
    07:00 +25°C° 0 mm 3 mps 749 mmHg 74%
    08:00 +27°C° 0.2 mm 4 mps 749 mmHg 70%
    09:00 +28°C° 0.2 mm 4 mps 749 mmHg 67%
    10:00 +30°C° 0.2 mm 5 mps 749 mmHg 63%
    11:00 +32°C° 0.1 mm 5 mps 749 mmHg 60%
    12:00 +32°C° 0.1 mm 5 mps 748 mmHg 58%
    13:00 +33°C° 0.1 mm 6 mps 748 mmHg 55%
    14:00 +33°C° 0 mm 5 mps 747 mmHg 56%
    15:00 +32°C° 0 mm 5 mps 747 mmHg 57%
    16:00 +32°C° 0 mm 5 mps 746 mmHg 58%
    17:00 +30°C° 0.1 mm 5 mps 747 mmHg 65%
    18:00 +28°C° 0.1 mm 4 mps 747 mmHg 73%
    19:00 +26°C° 0.1 mm 4 mps 747 mmHg 81%
    20:00 +26°C° 0.7 mm 4 mps 748 mmHg 84%
    21:00 +26°C° 0.7 mm 4 mps 748 mmHg 87%
    22:00 +26°C° 0.7 mm 4 mps 749 mmHg 90%
    23:00 +26°C° 1.3 mm 4 mps 748 mmHg 90%

    10 December, Tuesday

    Time Temperature Precipitation Wind Pressure Humidity
    00:00 +26°C° 1.3 mm 4 mps 747 mmHg 90%
    01:00 +26°C° 1.3 mm 4 mps 747 mmHg 90%
    02:00 +26°C° 1.2 mm 4 mps 747 mmHg 90%
    03:00 +26°C° 1.2 mm 4 mps 746 mmHg 91%
    04:00 +26°C° 1.2 mm 4 mps 746 mmHg 91%
    05:00 +26°C° 1.3 mm 4 mps 746 mmHg 90%
    06:00 +26°C° 1.3 mm 4 mps 746 mmHg 90%
    07:00 +26°C° 1.3 mm 4 mps 747 mmHg 89%
    08:00 +27°C° 1.3 mm 4 mps 747 mmHg 87%
    09:00 +27°C° 1.3 mm 4 mps 747 mmHg 84%
    10:00 +28°C° 1.3 mm 5 mps 747 mmHg 82%
    11:00 +29°C° 1.2 mm 5 mps 747 mmHg 80%
    12:00 +29°C° 1.2 mm 5 mps 746 mmHg 79%
    13:00 +30°C° 1.2 mm 5 mps 746 mmHg 78%
    14:00 +29°C° 1.4 mm 5 mps 745 mmHg 78%
    15:00 +29°C° 1.4 mm 5 mps 745 mmHg 78%
    16:00 +29°C° 1.4 mm 5 mps 745 mmHg 78%
    17:00 +28°C° 0.9 mm 4 mps 745 mmHg 82%
    18:00 +27°C° 0.9 mm 4 mps 745 mmHg 85%
    19:00 +26°C° 0.9 mm 4 mps 745 mmHg 89%
    20:00 +26°C° 0.9 mm 4 mps 746 mmHg 90%
    21:00 +26°C° 0.9 mm 4 mps 746 mmHg 91%
    22:00 +26°C° 0.9 mm 4 mps 746 mmHg 92%
    23:00 +25°C° 0.8 mm 4 mps 746 mmHg 93%
    Show more